Regional Weather Roundup
Issued by NWS Goodland, KS

Home | Current Version | Previous Version | Text Only | Print | Product List | Glossary Off
Versions: 1 2 3 4 5 6 7 8 9 10 11 12 13 14 15 16 17 18 19 20 21 22 23 24 25 26 27 28 29 30 31 32 33 34 35 36 37 38 39 40 41 42 43 44 45 46 47 48 49 50

000
ASUS43 KGLD 271008
RWRGLD

GOODLAND FORECAST AREA HOURLY WEATHER ROUNDUP
NATIONAL WEATHER SERVICE GOODLAND KS
300 AM MST FRI FEB 27 2015

...OFFICIAL OBSERVATIONS...

CITY           SKY/WX    TMP DP  RH WIND       PRES   REMARKS
GOODLAND KS    LGT SNOW  11   7  84 SE15      30.28F FOG     WCI  -5
HILL CITY KS   CLOUDY     8  -2  63 E5        30.47F
IMPERIAL NEB   CLOUDY     6  -4  63 SE9       30.34F
MCCOOK NEB     CLOUDY     8  -2  63 E7        30.43F
AKRON CO       LGT SNOW   7   5  91 E15       30.14F FOG     WCI -10
BURLINGTON CO  LGT SNOW  11   7  84 SE17      30.22S FOG     WCI  -6
LIMON CO       CLOUDY     7   4  87 SE16      30.09F WCI -11
$$

...UNOFFICIAL OBSERVATIONS...

CITY           SKY/WX    TMP DP  RH WIND       PRES   REMARKS
COLBY KS       CLOUDY    12   3  67 E12       30.35F WCI  -2
GOVE KS          N/A     11  32 100 MISG        N/A
LENORA KS        N/A      6  32 100 S6          N/A
NORTON KS      CLEAR      9  -2  61 E6        30.45S
SHARON SPRINGS   N/A     13  10  87 S13         N/A  WCI  -1
KIT CARSON CO    N/A     11   8  86 MISG        N/A
YUMA CO          N/A      9   4  81 E10         N/A  WCI  -5
$$


USA.gov is the U.S. government's official web portal to all federal, state and local government web resources and services.